This demonstration page uses our WeatherBlox Daily Observations layout. Learn more.

Left ArrowRight Arrow

44.8408, -93.29828

Hourly Observations for May 11, 2016

Temp ( °F °C ) Dew Point ( °F °C ) Humidity (%) Winds ( mph kmh ) Pressure ( in mb ) Visibility ( mi km ) Precip ( " mm )
12:53 am 00:53 Cloudy 50 10 45 7.2 83 83 ESE 10 17 30.06 1018 10 16 0.00 0.00
1:26 am 01:26 Cloudy 50 10 45 7 82 82 ESE 10 17 30.03 1017 10 16 0.00 0.00
1:53 am 01:53 Cloudy 50 10 45 7.2 83 83 ESE 7 11 30.04 1017 10 16 0.00 0.00
2:53 am 02:53 Cloudy 50 10 45 7.2 83 83 E 10 17 30.03 1017 10 16 0.00 0.00
3:20 am 03:20 Cloudy 50 10 46 8 88 88 SE 9 15 30.03 1017 10 16 0.00 0.00
3:53 am 03:53 Cloudy 50 10 46 7.8 86 86 E 8 13 30.04 1017 9 14 0.00 0.00
4:53 am 04:53 Cloudy with Mist and Fog 49 9.4 47 8.3 93 93 ESE 7 11 30.04 1017 4 6 0.00 0.00
5:11 am 05:11 Cloudy with Mist and Fog 49 9.4 47 8.3 93 93 SE 6 9 30.03 1017 3 4 0.00 0.00
5:20 am 05:20 Cloudy with Mist and Fog 48 9 46 8 94 94 SE 5 7 30.03 1017 2 3 0.00 0.00
5:34 am 05:34 Cloudy with Mist and Fog 49 9.4 47 8.3 93 93 SSE 6 9 30.03 1017 2 3 0.00 0.00
5:53 am 05:53 Cloudy with Mist and Fog 49 9.4 47 8.3 93 93 SE 5 7 30.03 1017 2 2 0.00 0.00
6:16 am 06:16 Cloudy with Mist and Fog 48 9 48 9 100 100 ESE 7 11 30.00 1016 1 2 0.00 0.00
6:35 am 06:35 Cloudy with Mist and Fog 49 9.4 47 8.3 93 93 ENE 8 13 30.00 1016 2 2 0.00 0.00
6:41 am 06:41 Cloudy with Mist and Fog 49 9.4 47 8.3 93 93 E 10 17 29.97 1015 2 3 0.00 0.00
6:53 am 06:53 Cloudy with Mist and Fog 49 9.4 48 8.9 97 97 E 9 15 29.99 1016 2 3 0.00 0.00
7:53 am 07:53 Cloudy with Drizzle 50 10 47 8.3 89 89 SE 7 11 30.04 1017 2 3 0.00 0.03
8:00 am 08:00 Cloudy with Drizzle 50 10 46 8 88 88 SE 7 11 30.03 1017 2 3 0.00 0.00
8:29 am 08:29 Cloudy with Drizzle 50 10 48 8.9 93 93 ESE 10 17 30.03 1017 2 3 0.00 0.03
8:43 am 08:43 Cloudy with Mist and Fog 51 10.6 48 8.9 89 89 ESE 10 17 30.00 1016 4 6 0.00 0.03
8:53 am 08:53 Cloudy 50 10 48 8.9 93 93 ESE 10 17 30.02 1017 7 11 0.00 0.03
9:53 am 09:53 Cloudy 51 10.6 49 9.4 92 92 SSE 8 13 30.02 1017 8 13 0.00 0.00
10:31 am 10:31 Cloudy 52 11.1 49 9.4 89 89 SSE 7 11 30.03 1017 8 13 0.00 0.00
10:53 am 10:53 Cloudy 53 11.7 48 8.9 83 83 SE 8 13 30.03 1017 10 16 0.00 0.00
11:53 am 11:53 Cloudy 53 11.7 48 8.9 83 83 SW 8 13 30.03 1017 10 16 0.00 0.00
11:57 am 11:57 Cloudy 54 12 48 9 82 82 SW 8 13 30.03 1017 10 16 0.00 0.00
12:22 pm 12:22 Cloudy 54 12 48 9 82 82 Calm 30.00 1016 10 16 0.00 0.00
12:44 pm 12:44 Cloudy with Rain 54 12 48 9 82 82 Calm 30.00 1016 2 2 0.00 0.00
12:53 pm 12:53 Cloudy with Light Rain 53 11.7 50 10 89 89 Calm 30.00 1016 5 8 0.04 1.02
1:07 pm 13:07 Cloudy with Light Rain 53 11.7 50 10 89 89 Calm 30.00 1016 6 10 0.01 0.25
1:14 pm 13:14 Cloudy with Light Rain 53 11.7 49 9.4 86 86 Calm 29.97 1015 6 10 0.01 0.25
1:42 pm 13:42 Cloudy with Light Rain 53 11.7 50 10 89 89 E 7 11 29.97 1015 7 11 0.02 0.51
1:53 pm 13:53 Cloudy 54 12.2 50 10 87 87 ESE 6 9 29.98 1015 8 13 0.02 0.51
2:00 pm 14:00 Cloudy 54 12.2 51 10.6 90 90 ESE 7 11 29.97 1015 10 16 0.00 0.00
2:13 pm 14:13 Cloudy 55 12.8 51 10.6 87 87 ESE 8 13 29.97 1015 10 16 0.00 0.00
2:48 pm 14:48 Cloudy 55 13 52 11 88 88 ESE 8 13 29.97 1015 10 16 0.00 0.00
2:53 pm 14:53 Cloudy 55 12.8 51 10.6 87 87 SE 8 13 29.98 1015 10 16 0.00 0.00
3:53 pm 15:53 Cloudy with Light Rain 55 12.8 51 10.6 87 87 SE 5 7 29.98 1015 6 10 0.00 0.03
4:42 pm 16:42 Cloudy with Light Rain 55 13 52 11 88 88 ESE 8 13 29.97 1015 5 8 0.00 0.00
4:53 pm 16:53 Cloudy with Light Rain 55 12.8 52 11.1 90 90 SE 7 11 29.98 1015 5 8 0.03 0.76
5:01 pm 17:01 Cloudy with Light Rain 55 12.8 52 11.1 90 90 SE 7 11 29.97 1015 5 8 0.01 0.25
5:24 pm 17:24 Cloudy with Mist and Fog 55 13 52 11 88 88 S 5 7 29.97 1015 5 8 0.00 0.00
5:53 pm 17:53 Cloudy with Light Rain 55 12.8 53 11.7 93 93 S 3 6 29.99 1016 2 3 0.02 0.51
6:00 pm 18:00 Cloudy with Light Rain 55 12.8 53 11.7 93 93 SSE 3 6 30.00 1016 2 3 0.01 0.25
6:21 pm 18:21 Cloudy with Drizzle 56 13.3 53 11.7 90 90 VRB 3 6 30.00 1016 2 3 0.01 0.25
6:35 pm 18:35 Cloudy with Drizzle 56 13.3 53 11.7 90 90 WSW 5 7 30.00 1016 2 3 0.02 0.51
6:53 pm 18:53 Cloudy with Light Rain 56 13.3 53 11.7 90 90 WNW 3 6 30.00 1016 2 3 0.02 0.51
7:07 pm 19:07 Cloudy with Light Rain 55 13 54 12 94 94 WSW 5 7 30.00 1016 2 3 0.00 0.00
7:37 pm 19:37 Cloudy with Light Rain 56 13.3 53 11.7 90 90 S 3 6 29.94 1014 6 10 0.02 0.51
7:53 pm 19:53 Cloudy with Light Rain 56 13.3 53 11.7 90 90 VRB 3 6 29.99 1016 7 11 0.02 0.51
8:53 pm 20:53 Cloudy 56 13.3 53 11.7 90 90 W 3 6 29.99 1016 8 13 0.00 0.03
9:31 pm 21:31 Mostly Cloudy 55 12.8 53 11.7 93 93 WNW 5 7 30.00 1016 8 13 0.00 0.00
9:49 pm 21:49 Partly Cloudy 54 12 52 11 94 94 WNW 3 6 30.00 1016 8 13 0.00 0.00
9:53 pm 21:53 Partly Cloudy 54 12.2 52 11.1 93 93 WNW 3 6 29.99 1016 10 16 0.00 0.00
10:53 pm 22:53 Mostly Clear with Patchy Fog 52 11.1 51 10.6 97 97 S 3 6 30.00 1016 9 14 0.00 0.00
11:05 pm 23:05 Mostly Cloudy with Patchy Fog 54 12.2 52 11.1 93 93 SSW 5 7 30.00 1016 9 14 0.00 0.00
11:16 pm 23:16 Cloudy with Patchy Fog 54 12 52 11 94 94 SSW 5 7 30.00 1016 1 2 0.00 0.00
11:24 pm 23:24 Cloudy with Mist and Fog 54 12 52 11 94 94 S 5 7 30.00 1016 1 1 0.00 0.00
11:32 pm 23:32 Mostly Cloudy with Fog 54 12 52 11 94 94 SSW 6 9 30.00 1016 0 0 0.00 0.00
11:46 pm 23:46 Mostly Cloudy with Fog 54 12 52 11 94 94 S 3 6 29.97 1015 0 0 0.00 0.00
11:53 pm 23:53 Mostly Cloudy with Fog 53 11.7 52 11.1 96 96 S 5 7 29.98 1015 0 0 0.00 0.00

Powered by AerisWeather